Location: Beekmeers
(50.8953°N, 3.6968°E)
Time: 14:38:56
(UTC+00:00)

Meteor 2-5 Rocket - Pass Details

Date: 23 May 2024
Orbit: 832 x 911 km, 81.2° (Epoch: 16 June)

Event Time Altitude Azimuth Distance (km) Brightness Sun altitude
Exits shadow 02:43:02 - 196° (SSW) 2,872 5.9 -8.1°
Reaches altitude 10° 02:43:48 10° 197° (SSW) 2,579 5.7 -8.1°
Maximum altitude 02:49:43 77° 283° (WNW) 940 3.9 -7.4°
Drops below altitude 10° 02:55:42 10° 10° (N) 2,612 7.2 -6.8°
Sets 02:58:12 0° 12° (NNE) 3,555 8.0 -6.5°
